Weather History for Greenwood, SC

Change the Weather History Date:

Sunday, August 25, 2013

  Actual Average (KAND) Record (KAND)
Temperature  
Mean Temperature 72 °F -  
Max Temperature 82 °F 87 °F 100 °F (1975)
Min Temperature 61 °F 68 °F 58 °F (1952)
Cooling Degree Days 6    
Growing Degree Days 22 (Base 50)    
Moisture  
Dew Point 61 °F    
Average Humidity 74    
Maximum Humidity 93    
Minimum Humidity 45    
Precipitation  
Precipitation 0.00 in - - ()
Sea Level Pressure  
Sea Level Pressure 30.32 in    
Wind  
Wind Speed 3 mph (NE)    
Max Wind Speed 10 mph    
Max Gust Speed -    
Visibility 10 miles    
Events      
Averages and records for this station are not official NWS values.
T = Trace of Precipitation, MM = Missing Value Source: NWS Daily Summary

Daily Weather History Graph

Daily Weather History Graph

Search for Another Location

Airport:

Trip Planner

Search our weather history database for the weather conditions in past years. The results will help you decide how hot, cold, wet, or windy it might be!

Date:

Astronomy

Aug. 25, 2013 Rise Set
Actual Time 6:57 AM EDT 8:03 PM EDT
Civil Twilight 6:31 AM EDT 8:29 PM EDT
Nautical Twilight 6:00 AM EDT 9:00 PM EDT
Astronomical Twilight 5:28 AM EDT 9:31 PM EDT
Moon 10:50 PM EDT (8/25) 11:42 AM EDT (8/25)
Length of Visible Light 13h 58m
Length of Day
13h 06m
Waning Gibbous, 76% of the Moon is Illuminated
Aug 25
Waning Gibbous
Aug 28
Last Quarter
Sep 5
New
Sep 12
First Quarter
Sep 19
Full

Hourly Weather History & Observations

Time (EDT) Temp. Heat Index Dew Point Humidity Pressure Visibility Wind Dir Wind Speed Gust Speed Precip Events Conditions
12:56 AM 66.9 °F - 62.1 °F 84% 30.29 in 10.0 mi North 3.5 mph - N/A   Partly Cloudy
1:56 AM 66.0 °F - 61.0 °F 84% 30.29 in 10.0 mi NNE 3.5 mph - N/A   Partly Cloudy
2:56 AM 64.0 °F - 61.0 °F 90% 30.29 in 10.0 mi Calm Calm - N/A   Clear
3:56 AM 62.1 °F - 60.1 °F 93% 30.29 in 10.0 mi Calm Calm - N/A   Clear
4:56 AM 61.0 °F - 59.0 °F 93% 30.30 in 10.0 mi Calm Calm - N/A   Clear
5:56 AM 61.0 °F - 57.9 °F 90% 30.31 in 10.0 mi North 3.5 mph - N/A   Clear
6:56 AM 61.0 °F - 57.9 °F 90% 30.33 in 9.0 mi Calm Calm - N/A   Scattered Clouds
7:56 AM 63.0 °F - 60.1 °F 90% 30.36 in 9.0 mi North 3.5 mph - N/A   Scattered Clouds
8:56 AM 66.9 °F - 63.0 °F 87% 30.38 in 10.0 mi North 3.5 mph - N/A   Scattered Clouds
9:56 AM 71.1 °F - 62.1 °F 73% 30.39 in 10.0 mi ENE 5.8 mph - N/A   Scattered Clouds
10:56 AM 75.9 °F - 61.0 °F 60% 30.39 in 10.0 mi ENE 4.6 mph - N/A   Clear
11:56 AM 77.0 °F - 59.0 °F 54% 30.37 in 10.0 mi Variable 3.5 mph - N/A   Clear
12:56 PM 79.0 °F - 60.1 °F 52% 30.36 in 10.0 mi NE 4.6 mph - N/A   Clear
1:56 PM 80.1 °F 80.7 °F 59.0 °F 48% 30.33 in 10.0 mi NNE 9.2 mph - N/A   Mostly Cloudy
2:56 PM 82.0 °F 82.1 °F 59.0 °F 45% 30.31 in 10.0 mi Variable 5.8 mph - N/A   Scattered Clouds
3:56 PM 82.0 °F 82.4 °F 60.1 °F 47% 30.29 in 10.0 mi NNE 10.4 mph - N/A   Clear
4:56 PM 79.0 °F - 60.1 °F 52% 30.29 in 10.0 mi ENE 8.1 mph - N/A   Mostly Cloudy
5:56 PM 80.1 °F 80.9 °F 60.1 °F 50% 30.28 in 10.0 mi NE 4.6 mph - N/A   Clear
6:56 PM 77.0 °F - 61.0 °F 58% 30.29 in 10.0 mi ENE 3.5 mph - N/A   Clear
7:56 PM 73.0 °F - 63.0 °F 71% 30.29 in 10.0 mi Calm Calm - N/A   Clear
8:56 PM 68.0 °F - 64.0 °F 87% 30.30 in 10.0 mi Calm Calm - N/A   Clear
9:56 PM 66.0 °F - 63.0 °F 90% 30.32 in 10.0 mi Calm Calm - N/A   Clear
10:56 PM 64.0 °F - 62.1 °F 93% 30.33 in 10.0 mi Calm Calm - N/A   Clear
11:56 PM 63.0 °F - 60.1 °F 90% 30.33 in 10.0 mi Calm Calm - N/A   Clear